Weather History for Defiance, OH

Change the Weather History Date:

Wednesday, September 4, 2013

  Actual Average Record
Temperature  
Mean Temperature 66 °F -  
Max Temperature 84 °F 79 °F 95 °F (1953)
Min Temperature 50 °F 56 °F 44 °F (1946)
Cooling Degree Days 1    
Growing Degree Days 16 (Base 50)    
Moisture  
Dew Point 51 °F    
Average Humidity 74    
Maximum Humidity 97    
Minimum Humidity 33    
Precipitation  
Precipitation 0.00 in - - ()
Sea Level Pressure  
Sea Level Pressure 30.09 in    
Wind  
Wind Speed 1 mph (WSW)    
Max Wind Speed 8 mph    
Max Gust Speed 18 mph    
Visibility 7 miles    
Events Fog    
Averages and records for this station are not official NWS values.
T = Trace of Precipitation, MM = Missing Value Source: NWS Daily Summary

Daily Weather History Graph

Daily Weather History Graph

Search for Another Location

Airport:

Trip Planner

Search our weather history database for the weather conditions in past years. The results will help you decide how hot, cold, wet, or windy it might be!

Date:

Astronomy

Sep. 04, 2013 Rise Set
Actual Time 7:07 AM EDT 8:05 PM EDT
Civil Twilight 6:39 AM EDT 8:33 PM EDT
Nautical Twilight 6:05 AM EDT 9:06 PM EDT
Astronomical Twilight 5:30 AM EDT 9:41 PM EDT
Moon 6:18 AM EDT (9/4) 7:24 PM EDT (9/4)
Length of Visible Light 13h 54m
Length of Day
12h 57m
Waning Crescent, 1% of the Moon is Illuminated
Sep 4
Waning Crescent
Sep 5
New
Sep 12
First Quarter
Sep 19
Full
Sep 26
Last Quarter

Hourly Weather History & Observations

Time (EDT) Temp. Heat Index Dew Point Humidity Pressure Visibility Wind Dir Wind Speed Gust Speed Precip Events Conditions
12:53 AM 55.9 °F - 52.0 °F 87% 30.06 in 10.0 mi Calm Calm - N/A   Clear
1:53 AM 54.0 °F - 51.1 °F 90% 30.07 in 10.0 mi Calm Calm - N/A   Clear
2:53 AM 54.0 °F - 51.1 °F 90% 30.06 in 10.0 mi Calm Calm - N/A   Clear
3:53 AM 52.0 °F - 48.9 °F 89% 30.08 in 10.0 mi Calm Calm - N/A   Clear
4:53 AM 51.1 °F - 48.9 °F 92% 30.09 in 1.8 mi Calm Calm - N/A   Clear
5:03 AM 53.6 °F - 50.0 °F 88% 30.09 in 4.0 mi Calm Calm - N/A   Clear
5:53 AM 52.0 °F - 50.0 °F 93% 30.09 in 5.0 mi Calm Calm - N/A   Clear
6:05 AM 51.8 °F - 50.0 °F 94% 30.09 in 2.0 mi Calm Calm - N/A   Partly Cloudy
6:11 AM 51.8 °F - 50.0 °F 94% 30.09 in 1.0 mi Calm Calm - N/A   Mist
6:19 AM 51.8 °F - 48.2 °F 88% 30.10 in 2.0 mi Calm Calm - N/A   Clear
6:22 AM 51.8 °F - 50.0 °F 94% 30.10 in 3.0 mi Calm Calm - N/A   Clear
6:30 AM 50.0 °F - 48.2 °F 94% 30.10 in 2.0 mi Calm Calm - N/A   Clear
6:37 AM 50.0 °F - 48.2 °F 94% 30.10 in 1.5 mi Calm Calm - N/A   Clear
6:40 AM 51.8 °F - 48.2 °F 88% 30.10 in 4.0 mi Calm Calm - N/A   Clear
6:51 AM 50.0 °F - 48.2 °F 94% 30.10 in 3.0 mi Calm Calm - N/A   Partly Cloudy
6:53 AM 51.1 °F - 48.9 °F 92% 30.10 in 3.0 mi Calm Calm - N/A   Partly Cloudy
7:11 AM 51.8 °F - 48.2 °F 88% 30.11 in 0.2 mi Calm Calm - N/A Fog Fog
7:25 AM 51.8 °F - 50.0 °F 94% 30.12 in 2.5 mi Calm Calm - N/A   Partly Cloudy
7:32 AM 51.8 °F - 50.0 °F 94% 30.12 in 4.0 mi Calm Calm - N/A   Partly Cloudy
7:53 AM 52.0 °F - 51.1 °F 97% 30.12 in 7.0 mi Calm Calm - N/A   Clear
8:53 AM 60.1 °F - 55.9 °F 86% 30.13 in 10.0 mi SW 4.6 mph - N/A   Clear
9:53 AM 66.0 °F - 57.0 °F 73% 30.13 in 10.0 mi SW 6.9 mph - N/A   Clear
10:53 AM 72.0 °F - 57.0 °F 59% 30.12 in 10.0 mi WSW 8.1 mph - N/A   Clear
11:53 AM 75.9 °F - 55.0 °F 48% 30.12 in 10.0 mi Variable 6.9 mph - N/A   Clear
12:53 PM 78.1 °F - 53.1 °F 42% 30.10 in 10.0 mi SW 8.1 mph - N/A   Clear
1:53 PM 79.0 °F - 52.0 °F 39% 30.10 in 10.0 mi Variable 4.6 mph 18.4 mph N/A   Clear
2:53 PM 82.9 °F 81.8 °F 53.1 °F 36% 30.09 in 10.0 mi West 8.1 mph - N/A   Clear
3:53 PM 82.9 °F - 51.1 °F 33% 30.08 in 10.0 mi West 6.9 mph 18.4 mph N/A   Clear
4:53 PM 82.9 °F - 52.0 °F 34% 30.07 in 10.0 mi Variable 5.8 mph - N/A   Clear
5:53 PM 82.9 °F - 52.0 °F 34% 30.05 in 10.0 mi Variable 6.9 mph - N/A   Clear
6:53 PM 81.0 °F - 52.0 °F 36% 30.06 in 10.0 mi Variable 4.6 mph - N/A   Clear
7:53 PM 75.9 °F - 53.1 °F 45% 30.06 in 10.0 mi SW 3.5 mph - N/A   Clear
8:53 PM 70.0 °F - 55.9 °F 61% 30.09 in 10.0 mi Calm Calm - N/A   Clear
9:53 PM 69.1 °F - 54.0 °F 58% 30.10 in 10.0 mi WSW 3.5 mph - N/A   Clear
10:53 PM 64.9 °F - 53.1 °F 65% 30.11 in 10.0 mi Calm Calm - N/A   Clear
11:53 PM 63.0 °F - 54.0 °F 72% 30.11 in 10.0 mi Calm Calm - N/A   Clear